Wind_Speed
15 21 29 38 47 55 65 77 84 92 101 112 120 116 109 103 98 89 85 78 73 69 64 62 59 52 48 47 47 46 47 49 49 49 46 45 44 45 47 47 49 47 45 42 43
6 12 21 29 35 43 52 61 70 81 94 107 117 119 115 106 101 95 87 83 76 70 65 63 58 54 51 49 47 47 45 46 48 49 50 50 50 51 49 48 49 49 48 50 49
1 6 16 23 31 40 45 53 63 78 97 100 112 118 118 111 106 99 90 84 77 73 67 63 59 56 53 51 48 46 46 46 47 46 48 49 50 49 50 50 50 51 51 51 53
5 7 13 27 35 40 49 58 68 83 93 94 104 114 117 114 107 100 92 85 77 75 70 64 62 58 56 54 51 48 46 45 45 47 49 49 49 49 48 50 52 49 49 52 52
17 11 12 23 35 47 56 65 72 79 84 91 100 109 112 111 106 100 92 86 79 75 71 65 63 60 58 53 53 49 49 50 49 48 48 49 50 51 49 51 51 54 54 54 55
25 17 10 18 25 42 56 61 65 67 79 88 95 104 108 108 105 101 92 86 80 76 72 67 63 61 59 55 52 51 51 51 51 51 52 50 51 52 51 52 54 55 57 59 59
28 20 14 7 16 25 38 51 47 58 75 86 92 99 103 104 102 99 90 86 80 77 73 68 63 59 58 58 57 56 54 55 54 54 54 55 56 56 55 55 57 56 58 61 59
36 24 14 9 14 23 24 30 37 56 72 85 92 96 100 101 99 95 90 85 81 77 72 67 65 61 58 57 58 57 56 57 57 54 54 57 59 58 58 59 61 59 60 60 59
43 32 21 16 10 14 25 33 31 52 71 83 92 96 99 98 96 93 87 84 81 77 73 68 64 62 59 57 57 57 58 57 57 58 59 60 60 61 60 62 66 64 66 66 64
46 40 31 19 17 17 28 36 41 56 68 79 89 94 96 95 93 90 85 83 80 76 72 69 67 63 61 61 58 58 59 60 60 60 61 61 61 64 62 63 63 68 71 70 71
48 42 37 28 22 18 28 33 45 58 65 76 84 91 93 91 88 86 84 81 78 75 71 69 66 63 62 63 62 63 61 62 61 62 63 65 65 66 69 69 72 69 70 68 67
56 46 42 36 29 22 28 35 46 57 62 72 80 86 89 88 84 84 82 80 77 76 73 69 65 63 62 61 62 63 63 64 64 65 65 67 71 70 71 73 74 73 71 70 68
64 53 45 37 34 28 25 30 41 53 60 68 75 80 83 83 82 82 80 78 75 73 70 67 64 64 65 64 64 63 64 64 65 68 66 66 68 70 70 73 72 69 67 67 65
61 62 51 42 33 33 28 28 35 44 55 61 68 74 77 79 78 78 76 75 72 69 68 67 64 65 66 66 65 64 64 63 65 68 68 70 69 73 75 69 66 64 65 65 60
61 58 56 51 38 31 30 30 29 32 42 50 59 64 69 70 71 73 72 71 69 68 67 66 65 66 65 66 66 67 68 68 68 69 69 75 75 70 66 65 62 60 60 57 56
57 56 54 50 48 37 28 25 25 32 39 42 46 55 60 64 66 66 67 68 68 68 68 68 67 67 67 67 66 67 67 70 70 71 73 78 71 63 61 59 56 56 57 57 57
64 56 50 50 45 42 38 26 19 20 24 33 41 46 51 54 57 61 64 66 67 67 67 68 68 68 66 68 69 69 70 72 72 75 76 66 59 56 54 54 54 54 53 50 49
59 61 55 47 42 43 35 31 29 19 17 20 26 32 39 44 47 50 53 56 60 62 63 63 64 66 67 66 67 68 71 73 67 62 59 55 52 52 51 50 45 43 39 35 34
50 53 54 54 49 41 34 33 29 23 20 16 15 19 23 29 36 41 45 48 52 54 56 58 59 61 62 65 65 61 54 53 51 49 46 45 42 40 39 40 34 31 28 25 23
42 43 45 46 46 48 45 39 31 25 22 20 17 15 13 14 18 23 28 33 36 41 43 46 47 47 45 44 43 43 42 39 36 34 36 36 32 28 24 20 18 17 16 14 11
33 35 36 38 39 40 41 41 39 36 31 23 15 11 11 13 14 16 19 21 24 26 28 30 32 33 33 31 30 30 30 31 30 27 24 20 17 13 9 7 5 3 1 1 3
30 30 29 30 31 32 32 33 32 31 32 31 29 22 16 8 1 4 7 10 14 17 19 20 22 22 23 23 23 22 21 19 15 12 10 8 8 7 7 6 6 5 6 7 6
24 25 25 26 26 25 25 26 26 26 25 25 25 24 23 19 15 12 8 2 4 8 10 11 13 13 15 15 14 12 9 7 8 9 10 11 11 11 12 12 13 13 13 15 16
24 21 20 19 20 22 22 20 19 21 21 21 19 19 18 17 16 16 12 11 10 8 6 4 4 5 6 7 8 10 11 12 14 14 14 18 16 19 18 20 21 21 22 23 24
19 21 22 20 17 16 17 17 17 17 18 18 19 18 16 14 13 13 13 13 14 16 16 15 15 15 14 14 15 16 17 18 21 19 21 27 22 26 24 28 28 24 25 28 29
21 18 21 22 23 22 19 18 16 15 15 17 19 20 20 20 19 19 18 18 19 20 21 22 22 22 22 22 24 27 27 23 27 30 26 29 36 29 31 31 35 39 41 41 40
32 27 23 21 24 26 26 26 24 22 22 22 21 20 22 23 25 27 27 28 28 28 29 31 30 30 33 30 28 35 40 35 34 35 37 38 41 42 43 43 42 44 46 48 50
Wind_Direction
256 236 221 221 218 214 211 211 211 211 213 213 215 218 220 221 223 223 225 226 228 228 232 235 238 240 243 240 242 244 243 245 250 252 250 249 250 254 257 263 264 270 273 276 279
259 228 210 205 209 207 207 204 204 204 206 207 210 213 217 218 221 223 222 225 225 225 229 233 236 239 243 243 244 246 246 247 250 253 253 253 255 258 261 266 270 272 274 277 279
354 198 188 188 192 193 189 189 194 196 206 202 202 207 213 216 220 220 221 222 223 224 227 230 233 238 240 245 247 250 252 255 255 255 256 257 258 260 262 265 268 273 276 278 282
56 123 176 175 178 179 183 186 193 195 200 195 200 201 207 211 215 217 218 219 221 223 225 228 231 235 238 245 248 253 255 255 257 260 261 263 263 264 265 265 268 268 271 274 275
46 92 159 182 179 178 182 189 194 196 194 192 194 198 202 207 210 213 215 217 219 221 224 227 230 233 238 240 246 249 253 255 258 263 263 267 268 267 268 268 268 265 265 268 272
45 66 94 167 183 187 188 191 195 195 188 189 191 195 199 203 207 211 214 214 217 219 223 226 230 232 237 240 244 247 250 254 259 260 263 266 266 269 272 271 272 270 271 271 272
59 69 74 116 192 196 203 198 193 183 184 187 189 192 195 200 203 209 210 213 216 218 223 226 229 233 238 240 243 246 249 253 257 260 263 265 268 271 272 275 276 276 277 277 278
54 73 94 113 166 184 175 180 182 180 182 185 187 189 192 197 202 206 209 211 215 218 221 226 229 233 238 241 243 246 250 253 255 258 261 266 269 271 273 273 273 278 275 274 276
54 53 57 104 138 172 160 159 169 180 180 183 186 188 192 196 201 205 208 211 216 219 223 226 229 233 238 242 246 249 253 255 258 260 264 266 269 271 273 273 274 273 274 274 280
54 56 60 83 113 152 159 156 164 176 180 181 186 188 191 195 199 204 208 212 216 220 223 228 231 234 239 242 248 251 254 256 260 263 265 267 273 272 273 275 276 277 276 279 281
52 60 66 72 83 131 153 152 166 174 181 183 187 189 191 195 200 203 209 212 217 221 225 230 234 238 242 245 249 253 258 260 262 266 268 269 272 274 274 276 275 278 279 282 282
45 53 64 74 80 99 144 154 166 173 179 182 187 191 194 197 201 205 209 214 218 222 226 230 234 239 244 248 252 255 259 263 266 270 272 275 276 278 279 279 281 281 283 284 283
48 50 59 70 85 100 121 150 164 171 177 184 189 192 196 198 202 206 210 216 220 225 230 234 239 243 245 249 253 258 262 267 270 273 277 278 281 283 282 282 284 284 283 284 285
50 51 55 62 75 95 112 136 162 170 176 184 190 194 197 201 204 209 213 218 223 227 232 237 241 246 249 253 257 261 265 269 272 276 279 282 282 284 285 283 284 283 284 284 283
50 52 55 57 65 77 103 128 152 172 178 185 191 196 198 203 208 211 215 220 226 231 235 240 244 248 252 257 259 262 267 270 273 277 279 281 283 285 284 285 286 284 281 280 279
46 51 54 59 62 66 81 105 136 167 180 189 192 199 203 207 212 215 220 224 228 233 237 242 246 250 254 258 262 265 268 270 272 275 278 283 284 283 283 283 284 281 278 278 281
44 47 52 57 61 66 68 78 104 132 167 185 196 202 205 211 216 221 224 229 233 237 241 245 249 253 256 260 263 266 269 272 276 280 283 279 280 281 281 280 278 279 283 286 286
41 44 48 53 60 66 71 76 80 104 149 175 191 202 209 214 219 223 227 231 235 239 244 248 251 255 257 261 264 267 270 273 275 275 275 275 276 275 279 280 281 283 286 287 286
33 40 43 48 52 57 63 74 85 92 99 123 169 194 207 217 225 229 233 236 240 244 247 250 253 257 261 265 269 269 268 268 268 267 269 272 274 276 278 280 283 288 288 285 284
29 32 37 40 43 47 53 59 65 73 90 107 124 144 165 193 214 228 234 240 244 247 251 254 257 258 258 258 259 259 259 263 267 269 271 271 273 274 280 290 291 282 280 281 278
32 29 30 34 36 37 41 47 52 55 59 63 74 102 133 154 173 190 205 217 225 231 235 237 240 244 248 250 254 261 267 267 267 265 263 263 263 273 274 277 277 291 320 63 133
25 27 27 26 29 28 32 34 38 43 50 53 49 53 59 68 137 233 234 234 231 236 241 243 248 249 251 255 255 254 252 251 248 245 243 242 246 251 248 230 222 210 196 191 201
13 18 18 18 20 22 22 20 22 25 30 33 36 41 45 43 46 52 46 28 245 237 236 237 237 237 235 233 229 229 238 236 228 230 239 245 249 240 240 241 244 245 243 239 233
348 355 0 4 3 5 9 11 10 6 5 6 10 13 16 19 24 15 17 13 4 355 343 317 290 286 273 269 254 240 241 243 245 255 250 255 256 257 264 265 270 278 273 273 273
337 336 337 338 342 348 346 347 350 352 349 343 340 341 341 339 339 339 336 332 329 326 321 316 313 310 295 283 272 257 256 256 258 268 266 275 269 274 274 275 275 268 266 270 269
320 329 325 320 323 327 323 323 320 320 321 323 321 319 316 314 313 312 309 305 302 302 301 298 297 298 294 293 291 281 275 284 278 277 276 276 268 279 274 273 273 279 280 281 279
314 311 307 306 307 308 308 311 306 303 298 297 297 294 293 295 298 300 299 295 293 293 291 286 283 281 280 278 275 272 279 278 277 276 276 274 273 278 279 278 277 278 281 283 282
Height
10399 10400 10401 10408 10417 10429 10443 10462 10483 10512 10540 10566 10598 10628 10652 10676 10692 10706 10720 10734 10745 10754 10763 10770 10776 10783 10789 10796 10803 10807 10810 10812 10815 10820 10823 10825 10826 10826 10827 10828 10828 10830 10828 10826 10826
10397 10396 10399 10404 10413 10424 10439 10458 10480 10501 10517 10537 10574 10610 10637 10660 10678 10695 10711 10724 10737 10748 10756 10763 10771 10777 10783 10789 10796 10800 10802 10805 10808 10813 10816 10817 10818 10819 10820 10820 10819 10820 10820 10819 10818
10396 10395 10399 10403 10410 10420 10435 10450 10465 10483 10489 10531 10558 10593 10621 10645 10665 10685 10702 10716 10730 10742 10750 10758 10766 10772 10778 10783 10788 10792 10795 10798 10801 10804 10807 10810 10811 10811 10812 10813 10813 10812 10811 10811 10809
10399 10401 10402 10403 10406 10418 10431 10443 10454 10465 10485 10525 10552 10580 10608 10632 10655 10677 10694 10710 10724 10735 10743 10752 10760 10766 10772 10777 10781 10786 10789 10792 10794 10796 10799 10801 10802 10804 10807 10804 10805 10804 10802 10801 10802
10404 10405 10405 10408 10414 10421 10425 10434 10445 10459 10494 10520 10544 10572 10599 10626 10650 10670 10687 10703 10717 10728 10736 10745 10753 10759 10766 10771 10776 10780 10783 10785 10786 10790 10792 10793 10794 10796 10799 10797 10796 10795 10794 10793 10792
10410 10413 10415 10419 10422 10427 10431 10441 10454 10474 10499 10520 10543 10568 10595 10623 10644 10663 10681 10697 10709 10720 10729 10739 10746 10753 10759 10766 10771 10774 10776 10778 10780 10783 10785 10786 10786 10788 10790 10790 10788 10786 10785 10784 10783
10423 10422 10425 10429 10433 10436 10443 10453 10471 10485 10503 10522 10546 10567 10593 10617 10639 10658 10676 10691 10704 10714 10724 10733 10742 10748 10754 10759 10764 10767 10769 10771 10773 10776 10778 10777 10776 10780 10782 10780 10777 10778 10777 10773 10774
10436 10436 10438 10438 10441 10443 10451 10467 10481 10493 10507 10525 10547 10570 10594 10615 10636 10654 10671 10685 10697 10709 10719 10728 10735 10741 10747 10752 10756 10760 10763 10764 10766 10768 10769 10770 10765 10771 10773 10769 10765 10769 10766 10763 10763
10450 10446 10446 10448 10449 10454 10462 10473 10490 10502 10514 10531 10552 10573 10595 10615 10635 10652 10667 10682 10693 10705 10715 10723 10729 10736 10741 10746 10750 10753 10755 10757 10758 10760 10761 10761 10754 10763 10763 10757 10755 10755 10753 10751 10751
10465 10461 10459 10460 10463 10464 10472 10480 10493 10508 10525 10541 10558 10577 10597 10616 10635 10651 10665 10679 10690 10701 10710 10718 10724 10730 10735 10739 10742 10745 10747 10748 10751 10751 10752 10752 10746 10751 10752 10748 10743 10740 10739 10738 10736
10486 10479 10474 10472 10473 10476 10483 10493 10502 10516 10534 10550 10567 10584 10601 10619 10635 10651 10664 10676 10687 10697 10705 10711 10718 10724 10728 10731 10735 10736 10739 10740 10742 10742 10742 10742 10738 10740 10738 10736 10731 10728 10725 10725 10722
10503 10495 10490 10487 10488 10492 10497 10502 10512 10526 10543 10559 10574 10590 10606 10622 10637 10650 10662 10674 10683 10691 10698 10706 10712 10717 10721 10724 10727 10729 10730 10731 10732 10731 10733 10731 10727 10729 10725 10721 10715 10714 10712 10709 10706
10523 10515 10509 10506 10505 10507 10514 10520 10525 10538 10554 10567 10581 10596 10611 10625 10637 10649 10661 10670 10679 10687 10695 10702 10707 10711 10714 10717 10719 10721 10722 10721 10722 10721 10722 10720 10719 10714 10711 10707 10704 10701 10698 10694 10691
10543 10536 10530 10526 10525 10523 10527 10535 10543 10553 10564 10577 10589 10602 10616 10628 10640 10651 10661 10669 10677 10685 10691 10696 10701 10704 10706 10710 10712 10712 10712 10714 10712 10710 10710 10707 10709 10703 10698 10693 10691 10689 10685 10681 10679
10563 10555 10549 10546 10544 10543 10545 10549 10558 10568 10578 10587 10596 10609 10621 10633 10642 10651 10660 10668 10675 10681 10686 10691 10694 10697 10700 10701 10702 10704 10704 10703 10702 10700 10699 10694 10693 10692 10686 10680 10678 10676 10670 10669 10666
10580 10575 10569 10565 10563 10562 10563 10566 10571 10577 10584 10595 10605 10615 10624 10633 10642 10650 10658 10665 10670 10676 10680 10683 10686 10689 10692 10693 10694 10694 10694 10693 10691 10689 10689 10683 10681 10680 10673 10669 10666 10661 10657 10655 10652
10598 10592 10588 10584 10580 10578 10579 10582 10585 10590 10596 10602 10610 10618 10627 10635 10643 10649 10655 10660 10666 10670 10675 10678 10681 10683 10685 10684 10684 10683 10681 10680 10681 10678 10676 10672 10671 10666 10661 10657 10654 10651 10649 10645 10641
10615 10610 10605 10601 10599 10597 10595 10596 10598 10602 10607 10611 10617 10623 10629 10636 10641 10646 10652 10657 10662 10665 10668 10671 10672 10673 10674 10674 10674 10673 10672 10670 10669 10666 10663 10660 10660 10654 10651 10648 10645 10643 10639 10635 10633
10629 10625 10621 10618 10615 10612 10612 10612 10611 10612 10614 10618 10622 10627 10631 10636 10641 10645 10649 10653 10656 10658 10661 10662 10664 10664 10664 10665 10665 10662 10660 10658 10656 10655 10653 10650 10648 10646 10643 10640 10638 10636 10632 10629 10627
10642 10638 10634 10631 10629 10627 10626 10625 10625 10625 10626 10626 10627 10629 10632 10636 10639 10641 10645 10647 10649 10651 10653 10654 10655 10654 10654 10654 10653 10652 10650 10649 10647 10647 10645 10643 10641 10639 10637 10635 10633 10631 10628 10626 10625
10651 10649 10645 10642 10640 10638 10637 10636 10635 10635 10635 10635 10636 10636 10637 10637 10638 10640 10641 10642 10643 10644 10645 10646 10646 10646 10646 10646 10646 10645 10643 10642 10641 10640 10639 10638 10636 10635 10634 10632 10631 10630 10628 10626 10625
10659 10657 10655 10652 10649 10647 10645 10645 10644 10643 10642 10643 10643 10642 10642 10641 10641 10641 10642 10642 10642 10642 10642 10643 10643 10642 10642 10641 10640 10639 10639 10638 10636 10635 10635 10634 10634 10633 10632 10631 10630 10629 10628 10627 10626
10665 10662 10660 10659 10657 10654 10653 10651 10650 10648 10648 10648 10647 10647 10647 10647 10646 10645 10644 10644 10643 10642 10642 10641 10641 10640 10639 10638 10638 10637 10635 10634 10634 10633 10633 10632 10632 10631 10631 10630 10628 10627 10626 10624 10623
10667 10665 10663 10662 10661 10659 10658 10657 10655 10654 10652 10651 10650 10650 10649 10648 10648 10648 10648 10647 10646 10645 10644 10643 10642 10641 10639 10637 10636 10634 10634 10633 10632 10632 10632 10629 10629 10627 10627 10626 10625 10624 10623 10621 10620
10666 10665 10664 10662 10660 10660 10659 10658 10657 10656 10655 10653 10652 10651 10650 10649 10648 10647 10647 10646 10645 10644 10643 10642 10641 10639 10638 10636 10635 10634 10632 10631 10629 10629 10627 10623 10625 10621 10622 10618 10617 10617 10615 10613 10611
10664 10663 10662 10660 10660 10658 10657 10656 10655 10654 10654 10653 10652 10651 10650 10648 10647 10645 10645 10644 10643 10642 10640 10639 10638 10637 10635 10633 10632 10629 10627 10628 10625 10622 10623 10620 10615 10618 10614 10613 10610 10606 10604 10603 10602
10658 10657 10657 10657 10656 10655 10654 10653 10652 10650 10649 10649 10648 10647 10646 10646 10645 10643 10641 10639 10638 10637 10635 10634 10633 10632 10629 10629 10629 10622 10617 10619 10619 10617 10614 10611 10607 10605 10603 10603 10601 10599 10596 10594 10591